SCP
0 0 0 0 0 0 0 0 0 0 0 0 0 0 0 0 0 0 0 0 0 0 0 0 0 0 0 0 0 0 0 0 0 0 0 0 0 0 0 0 0 0 0 0 0 0 0
0 0 0 0 0 0 0 0 0 0 0 0 0 0 0 0 0 0 0 0 0 0 0 0 0 0 0 0 0 0 0 0 0 0 0 0 0 0 0 0 0 0 0 0 0 0 0
-0 -0 -0 -0 -0 -0 -0 0 0 -0 -0 -0 -0 -0 -0 -0 -0 -0 0 0 0 0 0 -0 0 0 0 0 0 0 0 0 0 0 0 0 0 0 0 0 0 0 0 0 0 0 0
-0 -0 -0 -0 0 -0 -0 -0 -0 -0 -0 -0 -0 -0 -0 -0 -0 -0 -0 -0 -0 -0 0 0 -0 0 -0 0 0 0 0 0 0 0 0 0 0 0 0 0 0 0 0 0 0 0 0
-0 -0 -0 -0 -0 -0 -0 -0 -0 -0 -0 -0 -0 -0 -0 -0 -0 -0 -0 -0 -0 -0 -0 -0 0 0 -0 0 0 0 0 0 0 0 0 0 0 0 0 0 0 0 0 0 0 0 0
-0 -0 -0 -0 -0 -0 -0 -0 -0 -0 -0 -0 -0 -0 -0 -0 -0 -0 -0 0 0 0 0 -0 0 0 0 0 -0 -0 0 0 0 0 0 0 0 0 0 0 0 0 0 0 0 0 0
-0 -0 -0 -0 -0 -0 -0 -0 -0 -0 -0 -0 -0 -0 -0 -0 -0 0 0 0 0 0 0 0 0 0 0 0 0 0 -0 0 0 0 0 0 0 0 0 0 0 0 0 0 0 0 0
-0 -0 -0 -0 -0 -0 -0 -0 -0 -0 -0 -0 -0 -0 -0 -0 -0 -0 0 0 0 -0 -0 0 0 0 0 -0 0 0 0 0 0 0 0 0 0 0 0 0 0 0 0 0 0 0 0
-0 -0 -0 -0 -0 -0 -0 -0 -0 -0 -0 0 0 -0 -0 -0 -0 -0 0 0 0 0 -0 0 0 0 0 0 0 0 0 0 0 0 0 0 0 0 0 0 0 0 0 0 0 0 0
-0 0 -0 -0 -0 -0 -0 -0 -0 -0 -0 0 0 0 -0 -0 0 0 0 0 0 0 0 -0 0 -0 -0 -0 -0 -0 0 0 0 0 0 0 0 0 0 0 0 0 0 0 0 0 0
0 0 0 -0 -0 -0 -0 0 -0 -0 0 0 0 0 -0 0 0 0 0 0 0 -0 0 0 -0 -0 -0 0 0 0 -0 -0 0 0 0 0 0 0 0 0 0 0 0 0 0 0 0
-0 0 -0 -0 -0 -0 -0 -0 -0 0 0 0 0 0 -0 0 0 0 0 0 0 0 -0 0 -0 0 -0 0 -0 0 0 0 0 -0 0 0 0 0 0 0 0 0 0 0 0 0 0
-0 -0 -0 -0 -0 -0 -0 -0 -0 0 0 0 0 0 -0 0 0 0 0 0 0 0 0 -0 -0 -0 -0 -0 -0 -0 -0 0 0 0 0 0 0 0 0 0 0 0 0 0 0 0 0
-0 -0 -0 -0 -0 -0 -0 -0 -0 -0 0 0 0 0 0 0 0 0 0 0 0 0 0 -0 -0 0 0 -0 -0 0 -0 0 0 0 0 0 0 0 0 0 0 0 0 0 0 0 0
0 0 -0 -0 -0 0 0 0 0 0 0 0 0 0 0 0 0 0 0 0 0 0 0 0 0 -0 -0 -0 0 0 0 0 0 -0 0 0 0 0 0 0 0 0 0 0 0 0 0
0 0 0 0 0 0 0 0 0 0 0 0 0 0 0 0 0 0 0 0 0 0 -0 -0 -0 0 -0 -0 0 -0 0 0 0 -0 0 0 0 0 0 0 0 0 0 0 0 0 0
0 0 0 0 0 0 0 0 0 0 0 0 0 0 0 0 0 0 0 0 -0 -0 -0 -0 -0 0 0 0 0 0 -0 -0 0 0 -0 -0 -0 -0 -0 0 0 0 0 0 0 0 0
0 0 0 0 0 0 0 0 0 0 0 0 0 0 0 0 0 0 0 0 -0 0 -0 0 0 -0 -0 0 0 -0 0 0 0 0 0 0 0 0 0 0 0 0 0 0 0 0 0
0 0 0 0 0 0 0 0 0 0 0 0 0 0 0 0 0 0 0 0 0 -0 0 0 0 0 -0 -0 -0 -0 -0 -0 0 0 0 0 0 -0 0 0 0 0 0 0 0 0 0
0 0 0 0 0 0 0 0 0 0 0 0 0 0 0 0 0 0 0 0 0 -0 -0 0 0 0 -0 -0 0 -0 0 -0 -0 0 -0 0 0 0 0 0 0 0 0 0 0 0 0
0 0 0 0 0 0 0 0 0 0 0 0 0 0 0 0 0 0 0 0 -0 -0 -0 0 -0 -0 -0 -0 -0 0 0 -0 0 0 0 0 0 0 0 0 -0 0 0 0 0 0 0
0 0 0 0 0 0 0 0 0 0 0 0 0 0 0 0 0 0 0 0 0 -0 -0 -0 -0 -0 0 -0 -0 0 -0 -0 -0 -0 -0 -0 0 0 0 0 -0 0 0 0 0 0 0
0 0 0 0 0 0 0 0 0 0 0 0 0 0 0 0 0 0 0 0 0 0 0 -0 -0 0 0 -0 0 0 0 0 0 0 -0 0 -0 0 0 -0 0 0 0 0 0 0 0
0 0 0 0 0 0 0 0 0 0 0 0 0 0 0 0 0 0 0 0 0 0 0 -0 0 0 0 -0 -0 0 -0 -0 0 -0 -0 -0 -0 -0 -0 -0 -0 0 0 0 0 0 -0
0 0 0 0 0 0 0 0 0 0 0 0 0 0 0 0 0 0 0 0 0 0 0 -0 0 -0 -0 0 0 0 0 0 -0 -0 -0 -0 -0 0 0 0 0 0 0 0 0 1 1
0 0 0 0 0 0 0 0 0 0 0 0 0 0 0 0 0 0 0 0 0 0 0 0 -0 0 0 0 0 0 0 0 -0 -0 -0 -0 -0 -0 0 0 0 0 0 0 0 0 0
0 0 0 0 0 0 0 0 0 0 0 0 0 0 0 0 0 0 0 0 0 0 0 0 0 0 0 -0 -0 0 0 0 -0 -0 -0 -0 0 -0 0 -0 0 0 0 0 0 0 0
0 0 0 0 0 0 0 0 0 0 0 0 0 0 0 0 0 0 0 0 0 0 0 0 0 0 0 0 0 0 0 -0 0 0 0 -0 0 0 0 -0 -0 -0 0 0 0 0 0
0 0 0 0 0 0 0 0 0 0 0 0 0 0 0 0 0 0 0 0 0 0 0 0 0 0 0 0 0 0 0 -0 0 -0 0 0 -0 0 0 0 0 0 0 0 0 0 0
Wind_Speed_500mb
34 34 35 36 37 37 36 36 38 38 38 38 38 39 40 41 41 40 41 41 39 38 39 38 39 39 36 22 51 16 30 30 17 36 54 47 49 37 26 29 51 47 37 57 66 69 71
35 36 36 38 40 39 37 36 36 37 37 38 40 41 42 43 45 46 44 41 41 39 39 40 40 39 34 28 36 34 22 35 22 20 50 56 41 45 32 37 40 36 44 54 58 62 66
34 37 39 40 39 37 35 35 36 36 37 39 41 43 43 42 42 40 41 43 43 41 44 37 34 38 38 61 46 34 37 33 38 38 39 45 44 47 20 26 70 53 40 43 53 54 47
38 41 44 45 44 41 38 37 38 40 43 47 50 51 52 51 52 50 49 43 36 34 38 36 38 24 26 43 25 26 49 43 37 42 43 46 41 35 34 34 48 36 33 43 41 42 57
39 42 45 48 48 44 40 40 41 44 47 49 51 53 55 55 54 54 57 51 35 24 33 34 34 19 23 11 26 18 39 37 37 40 40 38 37 41 36 9 13 24 41 45 49 48 33
41 43 46 48 49 47 45 46 48 50 52 54 58 62 65 63 63 57 51 45 34 26 22 14 21 18 34 27 15 8 11 19 23 32 36 44 32 19 17 19 33 21 42 50 52 26 33
40 42 45 48 51 51 52 53 52 52 54 57 62 69 69 64 56 46 39 50 59 15 12 38 51 32 71 33 34 14 18 10 24 16 18 33 17 41 67 42 30 36 45 36 34 36 31
40 42 46 48 50 52 54 55 55 55 56 58 59 61 60 54 44 19 30 34 43 43 43 67 72 87 81 76 63 66 46 46 24 16 19 19 47 52 31 38 41 46 47 43 28 24 34
41 44 46 46 48 50 53 55 56 56 55 54 54 60 55 43 30 24 33 35 43 53 24 81 76 86 75 63 64 69 53 53 29 25 25 30 31 31 39 40 41 52 52 36 42 24 38
41 44 45 45 46 49 51 53 55 56 55 54 53 51 43 42 24 34 34 46 45 39 9 31 18 10 20 64 52 75 67 56 34 33 26 31 35 41 41 48 37 48 26 43 36 24 40
41 44 46 47 47 49 50 51 54 58 57 54 51 38 38 25 39 28 43 59 37 16 10 22 32 35 47 5 15 14 45 48 38 32 21 44 27 15 34 41 39 45 30 36 24 33 31
41 43 47 49 51 52 52 51 55 58 57 54 47 30 30 27 31 45 49 33 22 5 8 21 12 28 18 11 33 6 16 17 16 27 31 36 35 33 36 34 38 34 33 35 30 23 27
44 44 46 49 52 52 51 53 57 58 55 54 44 24 22 20 25 34 41 25 8 2 9 26 43 44 40 33 23 17 16 14 1 8 20 26 32 33 37 39 36 27 27 15 17 21 34
47 47 48 51 54 54 52 58 60 59 56 52 43 23 19 14 16 23 25 7 7 35 32 33 31 33 16 39 29 36 29 12 10 9 10 15 13 16 18 36 24 26 25 21 29 22 31
49 50 51 52 53 52 58 64 65 63 57 54 43 18 16 8 13 17 10 3 7 24 31 33 32 18 18 41 18 25 21 21 11 8 4 11 12 28 43 37 31 43 36 27 34 29 13
51 52 53 55 54 52 57 65 71 68 60 47 50 27 6 16 26 13 5 8 8 39 36 32 14 8 25 26 21 18 19 8 5 10 6 2 16 16 36 27 29 27 23 16 19 36 33
52 53 53 55 56 56 58 65 72 73 64 52 25 12 15 15 12 8 3 10 36 48 53 26 36 24 1 7 15 21 13 23 17 4 14 11 12 17 20 6 16 15 34 25 13 21 21
51 53 54 55 58 60 59 61 69 73 69 53 17 7 8 21 9 5 5 25 45 41 51 27 18 32 19 21 20 15 20 7 20 35 10 9 5 12 23 30 35 37 39 32 19 17 21
48 52 55 57 58 60 62 59 60 66 61 56 34 17 10 13 3 6 16 31 40 26 20 19 13 21 12 13 12 26 13 22 22 19 18 7 6 11 15 12 17 10 16 24 15 30 35
50 52 54 58 60 60 61 58 53 60 49 46 14 7 21 23 38 10 15 16 32 36 34 37 24 22 4 11 22 20 30 7 15 13 43 19 5 16 15 27 17 21 40 31 18 20 25
53 54 53 53 59 62 61 56 52 57 47 30 7 9 21 10 19 25 23 16 32 28 25 38 16 29 32 26 32 17 31 22 27 2 6 3 8 19 29 39 27 28 35 40 29 33 19
51 53 54 53 54 59 60 56 51 57 50 20 16 14 18 32 33 21 13 7 24 28 25 28 24 36 25 26 22 38 31 19 13 13 6 4 9 12 29 37 30 23 29 38 38 45 35
51 52 51 54 54 53 55 57 54 52 51 19 23 21 18 18 17 16 11 16 29 34 20 40 37 32 32 35 46 55 51 50 27 20 23 18 6 8 9 14 19 11 25 32 30 38 38
55 53 53 52 54 52 50 53 56 48 37 30 26 31 12 10 14 23 40 33 32 33 30 47 45 16 31 51 59 61 53 52 35 29 29 21 23 7 9 11 9 2 27 32 29 32 33
56 55 53 53 53 53 49 50 53 49 34 37 22 18 9 8 28 32 39 33 38 38 29 41 31 48 58 43 12 14 8 7 12 24 29 29 12 6 6 7 5 15 8 20 20 19 42
57 54 56 56 54 51 50 49 50 49 41 45 33 14 26 12 12 38 39 30 13 10 16 27 50 52 28 7 5 8 7 8 10 14 10 24 15 6 6 7 5 4 35 54 31 12 31
55 55 62 58 55 48 48 49 48 50 43 43 39 7 22 19 40 25 23 22 10 8 8 23 30 21 29 9 5 4 6 17 10 11 11 2 5 16 12 5 10 29 48 46 11 4 42
59 58 62 60 49 47 47 47 48 48 46 42 49 19 33 24 56 58 39 44 28 11 4 19 22 8 9 11 7 7 5 8 8 6 9 4 6 7 8 2 5 31 38 12 18 45 17
64 66 58 54 48 47 48 50 49 48 48 44 47 12 26 31 44 69 68 49 44 54 31 3 12 16 7 5 6 6 5 4 9 5 9 3 4 5 1 5 9 38 37 41 37 42 48
Wind_Direction_500mb
37 34 31 27 22 18 16 14 13 12 9 5 2 358 353 349 344 339 333 328 324 321 319 313 309 304 298 253 242 198 303 315 322 216 213 218 231 240 248 241 228 238 247 241 244 249 255
32 28 22 19 14 12 11 12 10 7 5 2 358 354 351 348 343 339 333 326 322 317 311 309 305 298 291 260 272 242 265 275 265 224 221 219 228 235 281 251 251 258 254 257 252 244 249
36 32 26 19 15 11 9 9 8 6 4 0 355 351 347 344 340 334 326 321 315 308 309 307 296 290 272 262 281 243 231 220 205 221 238 237 236 222 213 254 259 262 266 271 262 259 248
33 29 23 18 15 13 13 11 9 6 3 358 355 352 349 345 341 336 328 320 312 298 293 302 306 277 261 307 285 253 230 238 221 222 234 244 247 275 266 258 270 259 259 255 256 261 254
30 25 22 22 20 20 17 13 6 2 358 356 352 349 347 344 341 336 331 325 320 292 277 288 287 253 259 317 257 301 243 246 238 254 250 250 259 261 278 241 267 235 239 249 250 237 252
27 23 20 19 18 16 10 5 1 357 354 351 349 346 343 339 335 334 335 342 356 300 299 286 284 232 260 249 247 246 232 202 226 242 250 231 230 226 236 221 219 217 227 236 246 239 238
23 19 16 14 11 8 5 2 358 355 353 351 349 346 339 334 330 334 351 355 354 350 346 294 283 245 290 277 300 263 218 245 271 214 211 233 217 222 219 218 228 246 239 252 244 244 263
14 11 11 10 7 3 1 357 354 351 351 349 344 336 331 334 337 355 349 346 337 319 294 285 259 254 249 261 284 279 271 284 255 230 222 235 228 228 237 226 231 244 260 262 263 246 247
7 6 6 5 3 1 359 355 352 349 347 345 341 340 340 349 353 356 339 344 326 336 305 294 266 252 248 248 249 255 250 251 246 251 242 229 244 224 231 233 229 232 238 248 256 285 279
2 360 359 359 358 358 357 354 350 347 345 345 346 350 353 3 11 356 353 324 318 337 300 310 313 15 218 233 254 248 235 228 231 235 242 260 254 239 245 229 232 242 234 238 253 241 254
357 354 352 351 351 351 353 353 350 347 345 345 348 353 1 351 341 353 331 325 337 355 298 360 351 333 328 22 322 357 213 224 224 223 212 240 273 261 247 249 232 253 225 257 257 246 261
353 350 347 346 345 347 349 352 351 349 346 343 345 348 349 17 351 347 323 341 338 49 315 313 306 325 332 353 290 339 312 295 286 213 239 250 246 257 264 272 252 263 243 244 257 261 263
356 352 348 345 344 346 349 350 349 349 347 340 340 329 337 343 339 335 341 357 36 124 232 355 355 351 335 332 311 241 219 152 275 344 275 248 246 251 252 269 275 260 233 248 236 231 239
359 358 354 350 347 347 350 348 349 348 348 339 339 317 326 314 342 312 347 3 30 351 4 353 0 345 331 14 335 342 332 296 170 303 291 257 265 263 254 230 253 255 235 221 214 217 244
2 359 355 352 350 351 349 350 350 347 348 338 338 329 301 302 330 319 339 317 305 335 347 337 2 343 348 1 338 350 339 15 24 97 305 10 282 311 302 297 229 251 251 246 250 279 225
2 0 358 354 351 349 350 352 351 348 348 345 330 332 304 235 331 4 317 269 302 300 326 317 2 351 325 343 333 358 311 241 108 153 247 87 285 278 287 286 278 235 259 249 224 235 253
359 360 359 357 354 349 346 351 354 348 349 350 345 297 192 303 324 6 14 288 307 314 319 334 323 314 60 314 297 319 220 310 303 291 197 210 196 276 300 256 270 267 238 240 279 220 232
358 358 358 359 358 354 348 347 354 351 349 359 9 309 280 0 272 131 253 312 301 340 339 321 344 345 13 356 323 318 332 318 343 331 295 336 309 281 263 281 279 285 266 232 228 250 232
355 355 356 356 356 356 354 351 352 355 348 349 339 295 3 337 325 335 314 307 316 316 309 315 327 341 36 15 326 293 312 1 13 6 339 347 272 303 310 235 252 283 327 252 248 238 219
354 353 353 353 353 352 353 354 354 357 348 345 330 320 336 334 360 338 313 306 326 330 313 359 336 321 87 294 308 313 315 343 291 239 279 297 249 255 275 295 325 294 310 321 347 248 233
351 352 350 352 355 355 355 356 357 360 355 348 326 348 14 322 329 334 326 293 322 327 324 344 318 346 337 322 311 296 318 320 321 192 281 196 247 254 272 277 273 270 285 299 307 283 275
344 348 349 347 349 352 355 356 354 1 9 13 341 349 325 298 311 318 321 292 320 329 327 309 323 322 314 301 304 312 304 299 279 266 224 173 262 292 278 264 252 232 266 283 285 282 282
340 342 344 347 347 348 350 354 352 349 3 8 329 324 312 287 317 335 334 326 312 315 316 323 306 317 309 295 293 291 290 279 248 250 262 261 262 295 295 137 120 301 259 263 271 265 263
335 335 337 339 342 344 346 347 350 347 347 345 337 316 294 286 324 314 316 309 327 325 301 295 302 320 300 319 311 295 281 262 248 237 214 246 250 263 267 182 217 355 331 329 304 276 302
330 327 331 332 335 338 339 341 345 348 341 340 343 299 280 272 308 303 325 322 318 319 316 312 329 323 318 317 306 322 333 298 247 216 198 219 214 257 260 241 325 329 41 345 339 6 358
328 325 325 326 326 330 333 337 337 343 336 334 339 248 278 287 246 324 314 303 314 318 321 315 327 325 329 278 305 304 354 337 328 9 311 229 156 198 312 314 180 62 323 330 313 50 352
322 322 324 321 322 322 326 330 333 334 332 329 331 267 274 259 281 278 300 311 297 280 280 306 338 329 350 325 308 304 339 358 352 7 343 311 143 237 260 281 332 343 330 318 109 331 323
318 319 322 321 318 319 320 324 330 333 331 328 324 292 248 267 282 283 285 280 306 255 261 317 325 356 327 2 332 339 347 354 323 0 347 43 279 342 319 96 122 347 340 46 317 311 321
314 317 317 319 316 317 318 318 321 326 326 327 310 305 272 270 266 291 291 282 266 255 267 261 287 300 322 350 339 310 312 319 290 1 330 14 339 304 65 290 359 24 1 338 328 334 18
Wind_Speed_850mb
34 34 35 36 37 37 36 36 38 38 38 38 38 39 40 41 41 40 41 41 39 38 39 38 39 39 36 22 51 16 30 30 17 36 54 47 49 37 26 29 51 47 37 57 66 69 71
35 36 36 38 40 39 37 36 36 37 37 38 40 41 42 43 45 46 44 41 41 39 39 40 40 39 34 28 36 34 22 35 22 20 50 56 41 45 32 37 40 36 44 54 58 62 66
34 37 39 40 39 37 35 35 36 36 37 39 41 43 43 42 42 40 41 43 43 41 44 37 34 38 38 61 46 34 37 33 38 38 39 45 44 47 20 26 70 53 40 43 53 54 47
38 41 44 45 44 41 38 37 38 40 43 47 50 51 52 51 52 50 49 43 36 34 38 36 38 24 26 43 25 26 49 43 37 42 43 46 41 35 34 34 48 36 33 43 41 42 57
39 42 45 48 48 44 40 40 41 44 47 49 51 53 55 55 54 54 57 51 35 24 33 34 34 19 23 11 26 18 39 37 37 40 40 38 37 41 36 9 13 24 41 45 49 48 33
41 43 46 48 49 47 45 46 48 50 52 54 58 62 65 63 63 57 51 45 34 26 22 14 21 18 34 27 15 8 11 19 23 32 36 44 32 19 17 19 33 21 42 50 52 26 33
40 42 45 48 51 51 52 53 52 52 54 57 62 69 69 64 56 46 39 50 59 15 12 38 51 32 71 33 34 14 18 10 24 16 18 33 17 41 67 42 30 36 45 36 34 36 31
40 42 46 48 50 52 54 55 55 55 56 58 59 61 60 54 44 19 30 34 43 43 43 67 72 87 81 76 63 66 46 46 24 16 19 19 47 52 31 38 41 46 47 43 28 24 34
41 44 46 46 48 50 53 55 56 56 55 54 54 60 55 43 30 24 33 35 43 53 24 81 76 86 75 63 64 69 53 53 29 25 25 30 31 31 39 40 41 52 52 36 42 24 38
41 44 45 45 46 49 51 53 55 56 55 54 53 51 43 42 24 34 34 46 45 39 9 31 18 10 20 64 52 75 67 56 34 33 26 31 35 41 41 48 37 48 26 43 36 24 40
41 44 46 47 47 49 50 51 54 58 57 54 51 38 38 25 39 28 43 59 37 16 10 22 32 35 47 5 15 14 45 48 38 32 21 44 27 15 34 41 39 45 30 36 24 33 31
41 43 47 49 51 52 52 51 55 58 57 54 47 30 30 27 31 45 49 33 22 5 8 21 12 28 18 11 33 6 16 17 16 27 31 36 35 33 36 34 38 34 33 35 30 23 27
44 44 46 49 52 52 51 53 57 58 55 54 44 24 22 20 25 34 41 25 8 2 9 26 43 44 40 33 23 17 16 14 1 8 20 26 32 33 37 39 36 27 27 15 17 21 34
47 47 48 51 54 54 52 58 60 59 56 52 43 23 19 14 16 23 25 7 7 35 32 33 31 33 16 39 29 36 29 12 10 9 10 15 13 16 18 36 24 26 25 21 29 22 31
49 50 51 52 53 52 58 64 65 63 57 54 43 18 16 8 13 17 10 3 7 24 31 33 32 18 18 41 18 25 21 21 11 8 4 11 12 28 43 37 31 43 36 27 34 29 13
51 52 53 55 54 52 57 65 71 68 60 47 50 27 6 16 26 13 5 8 8 39 36 32 14 8 25 26 21 18 19 8 5 10 6 2 16 16 36 27 29 27 23 16 19 36 33
52 53 53 55 56 56 58 65 72 73 64 52 25 12 15 15 12 8 3 10 36 48 53 26 36 24 1 7 15 21 13 23 17 4 14 11 12 17 20 6 16 15 34 25 13 21 21
51 53 54 55 58 60 59 61 69 73 69 53 17 7 8 21 9 5 5 25 45 41 51 27 18 32 19 21 20 15 20 7 20 35 10 9 5 12 23 30 35 37 39 32 19 17 21
48 52 55 57 58 60 62 59 60 66 61 56 34 17 10 13 3 6 16 31 40 26 20 19 13 21 12 13 12 26 13 22 22 19 18 7 6 11 15 12 17 10 16 24 15 30 35
50 52 54 58 60 60 61 58 53 60 49 46 14 7 21 23 38 10 15 16 32 36 34 37 24 22 4 11 22 20 30 7 15 13 43 19 5 16 15 27 17 21 40 31 18 20 25
53 54 53 53 59 62 61 56 52 57 47 30 7 9 21 10 19 25 23 16 32 28 25 38 16 29 32 26 32 17 31 22 27 2 6 3 8 19 29 39 27 28 35 40 29 33 19
51 53 54 53 54 59 60 56 51 57 50 20 16 14 18 32 33 21 13 7 24 28 25 28 24 36 25 26 22 38 31 19 13 13 6 4 9 12 29 37 30 23 29 38 38 45 35
51 52 51 54 54 53 55 57 54 52 51 19 23 21 18 18 17 16 11 16 29 34 20 40 37 32 32 35 46 55 51 50 27 20 23 18 6 8 9 14 19 11 25 32 30 38 38
55 53 53 52 54 52 50 53 56 48 37 30 26 31 12 10 14 23 40 33 32 33 30 47 45 16 31 51 59 61 53 52 35 29 29 21 23 7 9 11 9 2 27 32 29 32 33
56 55 53 53 53 53 49 50 53 49 34 37 22 18 9 8 28 32 39 33 38 38 29 41 31 48 58 43 12 14 8 7 12 24 29 29 12 6 6 7 5 15 8 20 20 19 42
57 54 56 56 54 51 50 49 50 49 41 45 33 14 26 12 12 38 39 30 13 10 16 27 50 52 28 7 5 8 7 8 10 14 10 24 15 6 6 7 5 4 35 54 31 12 31
55 55 62 58 55 48 48 49 48 50 43 43 39 7 22 19 40 25 23 22 10 8 8 23 30 21 29 9 5 4 6 17 10 11 11 2 5 16 12 5 10 29 48 46 11 4 42
59 58 62 60 49 47 47 47 48 48 46 42 49 19 33 24 56 58 39 44 28 11 4 19 22 8 9 11 7 7 5 8 8 6 9 4 6 7 8 2 5 31 38 12 18 45 17
64 66 58 54 48 47 48 50 49 48 48 44 47 12 26 31 44 69 68 49 44 54 31 3 12 16 7 5 6 6 5 4 9 5 9 3 4 5 1 5 9 38 37 41 37 42 48
Wind_Direction_850mb
37 34 31 27 22 18 16 14 13 12 9 5 2 358 353 349 344 339 333 328 324 321 319 313 309 304 298 253 242 198 303 315 322 216 213 218 231 240 248 241 228 238 247 241 244 249 255
32 28 22 19 14 12 11 12 10 7 5 2 358 354 351 348 343 339 333 326 322 317 311 309 305 298 291 260 272 242 265 275 265 224 221 219 228 235 281 251 251 258 254 257 252 244 249
36 32 26 19 15 11 9 9 8 6 4 0 355 351 347 344 340 334 326 321 315 308 309 307 296 290 272 262 281 243 231 220 205 221 238 237 236 222 213 254 259 262 266 271 262 259 248
33 29 23 18 15 13 13 11 9 6 3 358 355 352 349 345 341 336 328 320 312 298 293 302 306 277 261 307 285 253 230 238 221 222 234 244 247 275 266 258 270 259 259 255 256 261 254
30 25 22 22 20 20 17 13 6 2 358 356 352 349 347 344 341 336 331 325 320 292 277 288 287 253 259 317 257 301 243 246 238 254 250 250 259 261 278 241 267 235 239 249 250 237 252
27 23 20 19 18 16 10 5 1 357 354 351 349 346 343 339 335 334 335 342 356 300 299 286 284 232 260 249 247 246 232 202 226 242 250 231 230 226 236 221 219 217 227 236 246 239 238
23 19 16 14 11 8 5 2 358 355 353 351 349 346 339 334 330 334 351 355 354 350 346 294 283 245 290 277 300 263 218 245 271 214 211 233 217 222 219 218 228 246 239 252 244 244 263
14 11 11 10 7 3 1 357 354 351 351 349 344 336 331 334 337 355 349 346 337 319 294 285 259 254 249 261 284 279 271 284 255 230 222 235 228 228 237 226 231 244 260 262 263 246 247
7 6 6 5 3 1 359 355 352 349 347 345 341 340 340 349 353 356 339 344 326 336 305 294 266 252 248 248 249 255 250 251 246 251 242 229 244 224 231 233 229 232 238 248 256 285 279
2 360 359 359 358 358 357 354 350 347 345 345 346 350 353 3 11 356 353 324 318 337 300 310 313 15 218 233 254 248 235 228 231 235 242 260 254 239 245 229 232 242 234 238 253 241 254
357 354 352 351 351 351 353 353 350 347 345 345 348 353 1 351 341 353 331 325 337 355 298 360 351 333 328 22 322 357 213 224 224 223 212 240 273 261 247 249 232 253 225 257 257 246 261
353 350 347 346 345 347 349 352 351 349 346 343 345 348 349 17 351 347 323 341 338 49 315 313 306 325 332 353 290 339 312 295 286 213 239 250 246 257 264 272 252 263 243 244 257 261 263
356 352 348 345 344 346 349 350 349 349 347 340 340 329 337 343 339 335 341 357 36 124 232 355 355 351 335 332 311 241 219 152 275 344 275 248 246 251 252 269 275 260 233 248 236 231 239
359 358 354 350 347 347 350 348 349 348 348 339 339 317 326 314 342 312 347 3 30 351 4 353 0 345 331 14 335 342 332 296 170 303 291 257 265 263 254 230 253 255 235 221 214 217 244
2 359 355 352 350 351 349 350 350 347 348 338 338 329 301 302 330 319 339 317 305 335 347 337 2 343 348 1 338 350 339 15 24 97 305 10 282 311 302 297 229 251 251 246 250 279 225
2 0 358 354 351 349 350 352 351 348 348 345 330 332 304 235 331 4 317 269 302 300 326 317 2 351 325 343 333 358 311 241 108 153 247 87 285 278 287 286 278 235 259 249 224 235 253
359 360 359 357 354 349 346 351 354 348 349 350 345 297 192 303 324 6 14 288 307 314 319 334 323 314 60 314 297 319 220 310 303 291 197 210 196 276 300 256 270 267 238 240 279 220 232
358 358 358 359 358 354 348 347 354 351 349 359 9 309 280 0 272 131 253 312 301 340 339 321 344 345 13 356 323 318 332 318 343 331 295 336 309 281 263 281 279 285 266 232 228 250 232
355 355 356 356 356 356 354 351 352 355 348 349 339 295 3 337 325 335 314 307 316 316 309 315 327 341 36 15 326 293 312 1 13 6 339 347 272 303 310 235 252 283 327 252 248 238 219
354 353 353 353 353 352 353 354 354 357 348 345 330 320 336 334 360 338 313 306 326 330 313 359 336 321 87 294 308 313 315 343 291 239 279 297 249 255 275 295 325 294 310 321 347 248 233
351 352 350 352 355 355 355 356 357 360 355 348 326 348 14 322 329 334 326 293 322 327 324 344 318 346 337 322 311 296 318 320 321 192 281 196 247 254 272 277 273 270 285 299 307 283 275
344 348 349 347 349 352 355 356 354 1 9 13 341 349 325 298 311 318 321 292 320 329 327 309 323 322 314 301 304 312 304 299 279 266 224 173 262 292 278 264 252 232 266 283 285 282 282
340 342 344 347 347 348 350 354 352 349 3 8 329 324 312 287 317 335 334 326 312 315 316 323 306 317 309 295 293 291 290 279 248 250 262 261 262 295 295 137 120 301 259 263 271 265 263
335 335 337 339 342 344 346 347 350 347 347 345 337 316 294 286 324 314 316 309 327 325 301 295 302 320 300 319 311 295 281 262 248 237 214 246 250 263 267 182 217 355 331 329 304 276 302
330 327 331 332 335 338 339 341 345 348 341 340 343 299 280 272 308 303 325 322 318 319 316 312 329 323 318 317 306 322 333 298 247 216 198 219 214 257 260 241 325 329 41 345 339 6 358
328 325 325 326 326 330 333 337 337 343 336 334 339 248 278 287 246 324 314 303 314 318 321 315 327 325 329 278 305 304 354 337 328 9 311 229 156 198 312 314 180 62 323 330 313 50 352
322 322 324 321 322 322 326 330 333 334 332 329 331 267 274 259 281 278 300 311 297 280 280 306 338 329 350 325 308 304 339 358 352 7 343 311 143 237 260 281 332 343 330 318 109 331 323
318 319 322 321 318 319 320 324 330 333 331 328 324 292 248 267 282 283 285 280 306 255 261 317 325 356 327 2 332 339 347 354 323 0 347 43 279 342 319 96 122 347 340 46 317 311 321
314 317 317 319 316 317 318 318 321 326 326 327 310 305 272 270 266 291 291 282 266 255 267 261 287 300 322 350 339 310 312 319 290 1 330 14 339 304 65 290 359 24 1 338 328 334 18